User: anonymous   Login
Location: Risskov
(56.1972°N, 10.2480°E)
Time: 22:33:15
(UTC+00:00)
Language:

SL-16 R/B - Orbit

View from above orbital plane
View from above orbital plane
View from above satellite
View from above satellite

Ground track
Ground track

The orbit data is extracted from the following two-line orbital elements,

1 28353U 04021B   20269.85679672 -.00000353 +00000-0 -15974-3 0  9999
2 28353 070.9976 088.7506 0005710 208.0810 152.0005 14.14235242841337
Epoch (UTC): 25 September 2020 20:33:47
Eccentricity: 0.0005710
inclination: 70.9976°
perigee height: 841 km
apogee height: 849 km
right ascension of ascending node: 88.7506°
argument of perigee: 208.0810°
revolutions per day: 14.14235242
mean anomaly at epoch: 152.0005°
orbit number at epoch: 84133

The dashed part of the orbit path shows where the satellite is in the earth's shadow,  

DLR